[[{"header":{"parameterUnit":"m.s-1","parameterCategory":1,"la1":30.2991,"la2":30.254,"lo1":-89.0895,"lo2":-89.0444,"dy":0.0017,"dx":0.0017,"nx":28,"ny":28,"refTime":"2023-09-25T21:00:00:Z","depth":0,"parameterNumber":2,"parameterNumberName":"U-component_of_WINDS"},"data":[0,0,0,0,0,0,0,0,0,0,0,0,0,0,0,0,0,0,0,0,0,0,0,0,0,0,0,0,0,0,0,0,0,0,0,0,0,0,0,0,0,0,0,0,0,0,0,0,0,0,0,0,0,0,0,0,0,0,-5.167,-5.1671,0,-5.1759,-5.176,-5.1761,-5.1709,-5.1706,-5.1704,-5.1701,-5.1789,-5.1793,-5.1798,0,0,0,0,0,0,0,0,0,0,0,0,0,-5.1452,-5.1456,-5.167,-5.1671,-5.1672,-5.1759,-5.176,-5.1761,-5.1709,-5.1706,-5.1703,-5.17,-5.1787,-5.1793,-5.1798,0,0,0,0,0,0,0,0,0,0,0,0,0,-5.1544,-5.1458,-5.167,-5.1657,-5.1657,-5.1759,-5.176,-5.1762,-5.171,-5.1706,-5.1702,-5.1699,-5.1785,-5.1792,-5.1799,-5.1918,0,0,-5.182,-5.1824,0,0,0,0,0,0,0,0,-5.1539,-5.1552,-5.1658,-5.1658,-5.1658,-5.1719,-5.1715,-5.1814,-5.1711,-5.1689,-5.1701,-5.1697,-5.1768,-5.1776,-5.1801,-5.1922,-5.1926,-5.1821,-5.1825,-5.1828,-5.183,0,0,0,0,0,0,0,-5.1533,-5.1548,-5.1705,-5.1659,-5.1659,-5.1645,-5.1654,-5.1734,-5.1749,-5.1691,-5.1687,-5.1699,-5.1768,-5.1795,-5.1803,-5.1927,-5.1821,-5.1827,-5.1831,-5.1834,-5.2148,-5.2151,0,0,0,0,0,0,-5.1528,-5.1543,-5.1702,-5.1708,-5.1588,-5.1653,-5.1662,-5.1703,-5.1748,-5.1751,-5.1702,-5.1696,-5.1785,-5.1795,-5.1806,-5.1945,-5.1828,-5.1835,-5.1839,-5.2143,-5.2148,-5.2153,0,0,0,0,0,0,-5.1523,-5.1543,-5.1699,-5.1625,-5.1644,-5.166,-5.1706,-5.1707,-5.1734,-5.1756,-5.1758,-5.1727,-5.1782,-5.1796,-5.189,-5.1948,-5.1838,-5.1844,-5.2139,-5.2145,-5.2151,-5.2227,0,0,0,0,0,0,-5.1517,-5.1541,-5.1587,-5.1626,-5.1648,-5.1783,-5.171,-5.1711,-5.1746,-5.174,-5.178,-5.1783,-5.178,-5.188,-5.1897,-5.1955,-5.185,-5.2133,-5.2141,-5.2149,-5.2219,-5.2235,-5.2248,0,0,0,0,0,-5.151,-5.1605,-5.159,-5.1609,-5.1706,-5.1786,-5.1798,-5.1793,-5.1751,-5.1797,-5.1811,-5.1782,-5.194,-5.189,-5.1909,-5.197,-5.213,-5.2139,-5.2148,-5.2212,-5.2232,-5.2248,0,0,0,0,0,0,-5.157,-5.1609,-5.1593,-5.1704,-5.1742,-5.1777,-5.1834,-5.1814,-5.1864,-5.1855,-5.1847,-5.1857,-5.1954,-5.1972,-5.1916,-5.2087,-5.2028,-5.2041,-5.207,-5.2089,-5.2103,-5.2094,-5.1856,0,0,0,0,0,-5.1597,-5.166,-5.1691,-5.1785,-5.1806,-5.1817,-5.1852,-5.1845,-5.1884,-5.1899,-5.1921,-5.1959,-5.2016,-5.2054,-5.2109,-5.2223,-5.2229,-5.2275,-5.2289,-5.2301,-5.2311,-5.237,-5.2389,-5.2183,-5.2183,-5.2183,0,0,-5.1652,-5.1681,-5.1721,-5.1798,-5.1827,-5.1891,-5.1831,-5.1901,-5.1948,-5.191,-5.1999,-5.2017,-5.2058,-5.2162,-5.2209,-5.218,-5.237,-5.2313,-5.2322,-5.2326,-5.2382,-5.2401,-5.2418,-5.219,-5.2188,-5.2187,0,0,-5.1783,-5.1813,-5.1894,-5.1925,-5.197,-5.1977,-5.1997,-5.2035,-5.2045,-5.2136,-5.2108,-5.2164,-5.2264,-5.2294,-5.2322,-5.2468,-5.2441,-5.2486,-5.256,-5.2617,-5.2634,-5.2648,-5.2696,-5.2713,-5.2497,-5.2497,-5.2497,0,-5.1844,-5.1941,-5.1938,-5.201,-5.2044,-5.2015,-5.2095,-5.2125,-5.2186,-5.2209,-5.2177,-5.2302,-5.2328,-5.2437,-5.2472,-5.2498,-5.2518,-5.2479,-5.2632,-5.2646,-5.2659,-5.2705,-5.2723,-5.2502,-5.2502,-5.2501,-5.2501,0,-5.2012,-5.208,-5.214,-5.2199,-5.224,-5.2317,-5.2324,-5.2366,-5.2357,-5.2368,-5.2459,-5.249,-5.2549,-5.2576,-5.2568,-5.2684,-5.2664,-5.2633,-5.2573,-5.2684,-5.2726,-5.2744,-5.2509,-5.2507,-5.2506,-5.2505,0,0,-5.218,-5.2239,-5.226,-5.2286,-5.2335,-5.2386,-5.2462,-5.2521,-5.2555,-5.2599,-5.2659,-5.2746,-5.2717,-5.275,-5.2745,-5.2796,-5.2905,-5.2758,-5.2758,-5.278,-5.3031,-5.3051,-5.3072,-5.289,-5.2893,-5.2896,-5.3026,0,-5.2311,-5.2442,-5.2442,-5.2563,-5.2623,-5.2598,-5.2663,-5.2699,-5.2712,-5.2764,-5.2778,-5.2838,-5.2797,-5.2816,-5.2866,-5.2881,-5.2954,-5.2872,-5.2943,-5.2945,-5.2928,-5.3094,-5.3116,-5.3237,-5.3043,-5.3046,-5.3048,0,-5.248,-5.253,-5.2656,-5.2695,-5.2721,-5.2779,-5.2833,-5.2885,-5.2925,-5.2931,-5.2968,-5.2956,-5.303,-5.2972,-5.3074,-5.3018,-5.3048,-5.306,-5.3064,-5.3066,-5.3,-5.3097,-5.3276,-5.3292,-5.3075,-5.3073,-5.3071,0,-5.2584,-5.2683,-5.2771,-5.2795,-5.2844,-5.2885,-5.2907,-5.2944,-5.298,-5.3027,-5.305,-5.3106,-5.3135,-5.3178,-5.318,-5.3138,-5.3281,-5.3224,-5.3285,-5.3285,-5.3312,-5.3309,-5.3493,-5.334,-5.3339,-5.3339,-5.3339,0,-5.2727,-5.2805,-5.2818,-5.2872,-5.2957,-5.2958,-5.3042,-5.3061,-5.3094,-5.315,-5.3133,-5.3185,-5.3187,-5.3241,-5.3244,-5.3325,-5.334,-5.3344,-5.3343,-5.3343,-5.3341,-5.3358,-5.3348,-5.3344,-5.3343,-5.3342,-5.3341,0,-5.2856,-5.2869,-5.2962,-5.3002,-5.3014,-5.3074,-5.3107,-5.3158,-5.317,-5.3241,-5.3257,-5.3276,-5.3337,-5.3346,-5.3418,-5.342,-5.3517,-5.3509,-5.3503,-5.35,-5.3558,-5.3551,-5.3756,-5.3781,-5.3615,-5.3617,-5.3618,0,-5.2944,-5.3002,-5.3049,-5.3085,-5.311,-5.3169,-5.3206,-5.3209,-5.3248,-5.3299,-5.3342,-5.3403,-5.3451,-5.3551,-5.357,-5.3625,-5.3615,-5.3684,-5.3623,-5.3621,-5.3611,-5.3605,-5.361,-5.3693,-5.3695,-5.3697,-5.3698,0,-5.3097,-5.3101,-5.3154,-5.3211,-5.3255,-5.3299,-5.3341,-5.3372,-5.338,-5.3424,-5.3488,-5.3526,-5.36,-5.3659,-5.3714,-5.3735,-5.3717,-5.3718,-5.3734,-5.3732,-5.3724,-5.3724,-5.3529,-5.3712,-5.371,-5.3709,-5.3709,-5.3708,-5.3205,-5.3255,-5.3295,-5.3355,-5.3388,-5.3427,-5.3476,-5.3495,-5.3549,-5.361,-5.3609,-5.3678,-5.3717,-5.3789,-5.3814,-5.3867,-5.3845,-5.3869,-5.3874,-5.3879,-5.3883,-5.372,-5.3878,-5.3878,-5.3877,-5.3877,-5.3877,0,-5.3353,-5.3378,-5.3434,-5.3493,-5.3541,-5.3523,-5.3569,-5.3608,-5.367,-5.3708,-5.3757,-5.3829,-5.3887,-5.3912,-5.3968,-5.4006,-5.3999,-5.402,-5.4014,-5.4019,-5.3902,-5.388,-5.4024,-5.4024,-5.4024,-5.4024,-5.4024,-5.4024,-5.3435,-5.3519,-5.3528,-5.3627,-5.3652,-5.372,-5.3747,-5.3782,-5.3813,-5.3895,-5.3943,-5.396,-5.3992,-5.4051,-5.4103,-5.4109,-5.4128,-5.4152,-5.4154,-5.4043,-5.4027,-5.4013,-5.3992,-5.4157,-5.4158,-5.4265,-5.4266,-5.4267]},{"header":{"parameterUnit":"m.s-1","parameterCategory":1,"la1":30.2991,"la2":30.254,"lo1":-89.0895,"lo2":-89.0444,"dy":0.0017,"dx":0.0017,"nx":28,"ny":28,"refTime":"2023-09-25T21:00:00:Z","depth":0,"parameterNumber":3,"parameterNumberName":"V-component_of_WINDS"},"data":[0,0,0,0,0,0,0,0,0,0,0,0,0,0,0,0,0,0,0,0,0,0,0,0,0,0,0,0,0,0,0,0,0,0,0,0,0,0,0,0,0,0,0,0,0,0,0,0,0,0,0,0,0,0,0,0,0,0,2.2246,2.2246,0,2.2299,2.23,2.23,2.2353,2.2354,2.2354,2.2355,2.2405,2.2406,2.2407,0,0,0,0,0,0,0,0,0,0,0,0,0,2.2187,2.2188,2.2246,2.2246,2.2247,2.2299,2.23,2.23,2.2353,2.2354,2.2355,2.2355,2.2405,2.2406,2.2407,0,0,0,0,0,0,0,0,0,0,0,0,0,2.2223,2.2188,2.2245,2.228,2.2283,2.2299,2.23,2.23,2.2353,2.2354,2.2355,2.2356,2.2405,2.2406,2.2407,2.2392,0,0,2.241,2.241,0,0,0,0,0,0,0,0,2.2221,2.2226,2.2274,2.2277,2.2281,2.2321,2.2297,2.2331,2.2352,2.2326,2.2355,2.2356,2.2376,2.2379,2.2387,2.2394,2.2396,2.241,2.2411,2.2411,2.2411,0,0,0,0,0,0,0,2.2219,2.2224,2.2267,2.2274,2.2279,2.2291,2.2298,2.2304,2.2344,2.2328,2.2332,2.2338,2.2378,2.2386,2.2388,2.2397,2.241,2.2411,2.2412,2.2412,2.2396,2.2395,0,0,0,0,0,0,2.2212,2.2221,2.2265,2.2268,2.2253,2.2292,2.2299,2.2307,2.2344,2.2351,2.2337,2.2341,2.2384,2.2387,2.239,2.2376,2.2411,2.2412,2.2413,2.2397,2.2396,2.2395,0,0,0,0,0,0,2.221,2.2215,2.2263,2.2246,2.2253,2.2292,2.23,2.2307,2.2315,2.2351,2.2358,2.2338,2.2385,2.2389,2.2392,2.2378,2.2412,2.2413,2.2398,2.2397,2.2395,2.2346,0,0,0,0,0,0,2.2208,2.2214,2.2209,2.2245,2.2254,2.2263,2.2299,2.2307,2.2317,2.2322,2.2354,2.236,2.2386,2.239,2.2393,2.238,2.2414,2.24,2.2398,2.2396,2.2349,2.2343,2.2338,0,0,0,0,0,2.2206,2.2192,2.2208,2.2213,2.2248,2.2263,2.2267,2.2299,2.2316,2.2311,2.2335,2.2359,2.238,2.239,2.2393,2.2381,2.2401,2.2398,2.2396,2.2351,2.2344,2.2338,0,0,0,0,0,0,2.215,2.2197,2.2216,2.2213,2.2234,2.2271,2.2266,2.229,2.2304,2.2308,2.2345,2.2352,2.235,2.2366,2.2377,2.2369,2.2394,2.2392,2.2359,2.2352,2.2347,2.2342,2.2415,0,0,0,0,0,2.2138,2.2147,2.2187,2.2181,2.219,2.2226,2.2234,2.2257,2.2279,2.2287,2.2311,2.233,2.2342,2.2348,2.236,2.2352,2.236,2.2346,2.234,2.2336,2.2333,2.2331,2.2325,2.2387,2.2387,2.2387,0,0,2.2112,2.2139,2.2142,2.217,2.2189,2.2197,2.2233,2.2239,2.2245,2.2288,2.2292,2.231,2.2335,2.2332,2.2332,2.2345,2.2318,2.2333,2.2329,2.2329,2.2328,2.2322,2.2317,2.2386,2.2386,2.2386,0,0,2.2069,2.209,2.2088,2.2107,2.2135,2.216,2.2159,2.2194,2.2209,2.2214,2.2247,2.2254,2.2273,2.2289,2.23,2.2266,2.2289,2.2269,2.2239,2.2237,2.2232,2.2227,2.2215,2.221,2.2267,2.2267,2.2267,0,2.2032,2.2046,2.2083,2.2088,2.21,2.2142,2.214,2.2155,2.2186,2.2193,2.2208,2.2233,2.2252,2.2255,2.2247,2.2254,2.2254,2.2264,2.223,2.2226,2.2222,2.2211,2.2206,2.2264,2.2264,2.2265,2.2265,0,2.2,2.201,2.2004,2.2035,2.2046,2.2047,2.2084,2.2091,2.2114,2.2137,2.2143,2.2168,2.2187,2.2189,2.221,2.2195,2.2202,2.2223,2.2248,2.2213,2.2203,2.2199,2.226,2.2261,2.2262,2.2263,0,0,2.192,2.1974,2.1971,2.1987,2.2023,2.203,2.2034,2.2054,2.2059,2.208,2.2083,2.21,2.212,2.2132,2.2156,2.2154,2.2126,2.2175,2.2176,2.2164,2.211,2.2093,2.2088,2.2142,2.2141,2.2141,2.2108,0,2.1882,2.1892,2.1927,2.1926,2.1936,2.1977,2.1981,2.2003,2.2025,2.2036,2.206,2.2071,2.2097,2.2104,2.2104,2.2129,2.2115,2.2132,2.2144,2.2144,2.2136,2.2083,2.2065,2.2032,2.2104,2.2104,2.2103,0,2.1838,2.1859,2.1859,2.1897,2.1903,2.1905,2.1927,2.1937,2.1964,2.198,2.1995,2.2023,2.2029,2.2054,2.2062,2.2073,2.208,2.2093,2.2093,2.2094,2.212,2.2081,2.2023,2.2017,2.2097,2.2098,2.2098,0,2.1779,2.1807,2.1811,2.1823,2.1867,2.1868,2.1887,2.1915,2.1925,2.1945,2.1952,2.1971,2.1981,2.1995,2.2027,2.2042,2.2031,2.2059,2.2044,2.2043,2.2038,2.2038,2.1979,2.2045,2.2045,2.2045,2.2046,0,2.1732,2.1731,2.1786,2.1788,2.1788,2.1829,2.1827,2.185,2.1875,2.1882,2.1919,2.1924,2.1967,2.1977,2.2002,2.2005,2.201,2.2022,2.2029,2.2018,2.2017,2.2022,2.2025,2.2044,2.2045,2.2045,2.2045,0,2.1665,2.1702,2.171,2.1753,2.1763,2.1762,2.1798,2.1801,2.1828,2.1836,2.184,2.188,2.1895,2.1929,2.1952,2.1969,2.1965,2.1977,2.1956,2.196,2.1943,2.1944,2.1885,2.1879,2.195,2.1949,2.1948,0,2.1632,2.1633,2.1677,2.1685,2.1703,2.1716,2.1728,2.1768,2.1779,2.1811,2.181,2.1828,2.1845,2.1866,2.1896,2.1914,2.1926,2.1905,2.1929,2.1919,2.1925,2.1924,2.1924,2.1898,2.1897,2.1897,2.1896,0,2.1569,2.1589,2.1605,2.1629,2.1643,2.1662,2.1684,2.1689,2.1734,2.1744,2.1761,2.1774,2.1799,2.1816,2.1839,2.1857,2.1883,2.1889,2.1886,2.1875,2.1862,2.1868,2.194,2.1889,2.189,2.189,2.1891,2.1891,2.1518,2.1521,2.1553,2.1571,2.1592,2.1612,2.1619,2.1647,2.1662,2.1686,2.171,2.1724,2.1752,2.1786,2.1803,2.1814,2.1827,2.1823,2.1822,2.182,2.1816,2.1862,2.1818,2.1818,2.1818,2.1819,2.1819,0,2.1457,2.148,2.1497,2.1527,2.1541,2.1569,2.1595,2.1604,2.1617,2.1642,2.1658,2.1677,2.1695,2.1728,2.1748,2.1751,2.1763,2.1754,2.1754,2.1757,2.1803,2.1803,2.1744,2.1744,2.1744,2.1744,2.1744,2.1744,2.1426,2.1433,2.1456,2.1474,2.1498,2.1513,2.1526,2.1545,2.1565,2.1586,2.1601,2.1624,2.1652,2.1675,2.1692,2.1701,2.1706,2.1693,2.1706,2.1747,2.1754,2.1761,2.1761,2.1694,2.1694,2.166,2.1659,2.1659]}]]